St. Paul, MN

9:23 PM CDT on July 22, 2017 (GMT -0500)
Saint Paul Downtown-Holman

Weather History for KSTP - December, 2012

Change the Weather History Date:

Tuesday, December 18, 2012

  Actual Average Record
Temperature  
Mean Temperature 25 °F -  
Max Temperature 28 °F 25 °F 46 °F (1997)
Min Temperature 23 °F 10 °F -17 °F (2016)
Degree Days  
Heating Degree Days 40    
Moisture  
Dew Point 20 °F    
Average Humidity 83    
Maximum Humidity 92    
Minimum Humidity 75    
Precipitation  
Precipitation 0.00 in - - ()
Sea Level Pressure  
Sea Level Pressure 29.74 in    
Wind  
Wind Speed 4 mph (ESE)    
Max Wind Speed 8 mph    
Max Gust Speed -    
Visibility 5 miles    
Events      
Averages and records for this station are not official NWS values.
T = Trace of Precipitation, MM = Missing Value Source: NWS Daily Summary

Daily Weather History Graph

Daily Weather History Graph

Search for Another Location

Airport or City:

Trip Planner

Search our weather history database for the weather conditions in past years. The results will help you decide how hot, cold, wet, or windy it might be!

Date:

Astronomy

Dec. 18, 2012 Rise Set
Actual Time 7:45 AM CST 4:32 PM CST
Civil Twilight 7:11 AM CST 5:06 PM CST
Nautical Twilight 6:34 AM CST 5:43 PM CST
Astronomical Twilight 5:58 AM CST 6:19 PM CST
Moon 11:11 AM CST (12/18) 11:14 PM CST (12/18)
Length of Visible Light 9h 54m
Length of Day
8h 46m
Waxing Crescent, 35% of the Moon is Illuminated
Dec 18
Waxing Crescent
Dec 19
First Quarter
Dec 28
Full
Jan 4
Last Quarter
Jan 11
New

Hourly Weather History & Observations

Time (CST) Temp. Windchill Dew Point Humidity Pressure Visibility Wind Dir Wind Speed Gust Speed Precip Events Conditions
12:50 AM 23.0 °F 15.8 °F 19.4 °F 86% 29.71 in 5.0 mi ESE 5.8 mph - N/A   Overcast
12:53 AM 23.0 °F 15.8 °F 19.9 °F 88% 29.73 in 5.0 mi ESE 5.8 mph - N/A   Overcast
1:44 AM 23.0 °F 17.0 °F 19.4 °F 86% 29.70 in 6.0 mi East 4.6 mph - N/A   Overcast
1:53 AM 23.0 °F 17.0 °F 19.0 °F 85% 29.73 in 6.0 mi ESE 4.6 mph - N/A   Overcast
2:18 AM 23.0 °F 15.8 °F 19.4 °F 86% 29.70 in 7.0 mi ESE 5.8 mph - N/A   Overcast
2:53 AM 23.0 °F 17.0 °F 19.0 °F 85% 29.72 in 7.0 mi East 4.6 mph - N/A   Overcast
3:24 AM 23.0 °F 17.0 °F 19.4 °F 86% 29.69 in 8.0 mi ESE 4.6 mph - N/A   Overcast
3:53 AM 23.0 °F 15.8 °F 19.0 °F 85% 29.72 in 7.0 mi ESE 5.8 mph - N/A   Overcast
4:28 AM 23.0 °F 14.7 °F 19.4 °F 86% 29.69 in 6.0 mi ESE 6.9 mph - N/A   Overcast
4:53 AM 23.0 °F 15.8 °F 19.9 °F 88% 29.71 in 5.0 mi East 5.8 mph - N/A   Overcast
5:53 AM 24.1 °F - 21.0 °F 88% 29.70 in 5.0 mi Calm Calm - N/A   Overcast
6:53 AM 24.1 °F 17.0 °F 21.0 °F 88% 29.69 in 5.0 mi East 5.8 mph - N/A   Overcast
7:53 AM 23.0 °F 14.7 °F 19.9 °F 88% 29.70 in 3.0 mi East 6.9 mph - N/A   Overcast
8:53 AM 23.0 °F 15.8 °F 21.0 °F 92% 29.71 in 3.0 mi East 5.8 mph - N/A   Overcast
9:53 AM 24.1 °F 15.2 °F 21.0 °F 88% 29.72 in 3.0 mi ENE 8.1 mph - N/A   Overcast
10:45 AM 24.8 °F 20.5 °F 19.4 °F 80% 29.70 in 2.5 mi East 3.5 mph - N/A   Overcast
10:53 AM 24.1 °F 18.2 °F 19.9 °F 84% 29.73 in 3.0 mi ENE 4.6 mph - N/A   Overcast
11:53 AM 25.0 °F - 21.0 °F 85% 29.71 in 3.0 mi Calm Calm - N/A   Overcast
12:22 PM 26.6 °F - 21.2 °F 80% 29.69 in 3.0 mi Calm Calm - N/A   Haze
12:53 PM 26.1 °F - 21.0 °F 81% 29.71 in 4.0 mi Calm Calm - N/A   Haze
1:53 PM 26.1 °F - 21.0 °F 81% 29.72 in 4.0 mi Calm Calm - N/A   Haze
2:53 PM 27.0 °F 23.0 °F 21.0 °F 78% 29.73 in 4.0 mi North 3.5 mph - N/A   Haze
3:53 PM 27.0 °F - 19.9 °F 75% 29.75 in 4.0 mi Calm Calm - N/A   Haze
4:53 PM 26.1 °F - 19.9 °F 78% 29.76 in 5.0 mi Calm Calm - N/A   Haze
5:53 PM 26.1 °F - 19.9 °F 78% 29.79 in 5.0 mi Calm Calm - N/A   Haze
6:53 PM 27.0 °F - 19.9 °F 75% 29.82 in 5.0 mi Calm Calm - N/A   Haze
7:53 PM 27.0 °F - 21.0 °F 78% 29.83 in 5.0 mi Calm Calm - N/A   Haze
8:53 PM 27.0 °F 23.0 °F 21.0 °F 78% 29.83 in 5.0 mi SSE 3.5 mph - N/A   Haze
9:10 PM 26.6 °F 22.6 °F 21.2 °F 80% 29.81 in 5.0 mi SSW 3.5 mph - N/A   Haze
9:53 PM 27.0 °F 20.5 °F 21.9 °F 81% 29.83 in 5.0 mi SSE 5.8 mph - N/A   Haze
10:53 PM 27.0 °F - 23.0 °F 85% 29.85 in 4.0 mi Calm Calm - N/A   Overcast
11:53 PM 28.0 °F 21.7 °F 23.0 °F 81% 29.87 in 4.0 mi SSE 5.8 mph - 0.00 in   Haze